Regional Weather Roundup
Issued by NWS

Home | Current Version | Previous Version | Graphics & Text | Print | Product List | Glossary On
Versions: 1 2 3 4 5 6 7 8 9 10 11 12 13 14 15 16 17 18 19 20 21 22 23 24 25 26 27 28 29 30 31 32 33 34 35 36 37 38 39 40 41 42 43 44 45 46 47 48 49 50
000
ASUS43 KIND 260559
RWRIN

WEATHER ROUNDUP FOR INDIANA
NATIONAL WEATHER SERVICE INDIANAPOLIS IN
200 AM EDT TUE MAY 26 2015

NOTE: "FAIR" INDICATES FEW OR NO CLOUDS BELOW 12,000 FEET WITH NO
SIGNIFICANT WEATHER AND/OR OBSTRUCTIONS TO VISIBILITY.

* - STATION DOES NOT REPORT WEATHER SUCH AS PRECIPITATION OR FOG.

+ - STATION NOT QUALITY CONTROLLED BY THE NATIONAL WEATHER SERVICE.
    USE DATA WITH CAUTION...ESPECIALLY DEWPOINT AND RELATIVE
    HUMIDITY OBSERVATIONS.

INZ001>003-010>013-019-020-260700-
NORTHWEST INDIANA

CITY           SKY/WX    TMP DP  RH WIND       PRES   REMARKS

$$

LMZ046-743>745-260700-
SOUTHERN LAKE MICHIGAN

STATION/POSITION TIME  TEMP    WIND        PRES    WAVE
                       AIR SEA DIR/SP/G            HT
                 (UTC) (F)     (DEG/KT/KT) (MB)    (FT)
BURNS HARBOR     0500   71     190/  8/ 15 1015.6S
MICHIGAN CITY    0500   72     170/ 12/ 17   N/A
5NW MICH CITY    0500   63 52  220/  8/ 10   N/A     1

$$

INZ004-005-014>016-021>024-260700-
NORTH CENTRAL INDIANA

CITY           SKY/WX    TMP DP  RH WIND       PRES   REMARKS
GOSHEN         CLEAR     68  63  84 S9        30.01F
6HR MIN TEMP:  68; 6HR MAX TEMP:  77;

SOUTH BEND     CLEAR     69  63  81 S8        30.01S
6HR MIN TEMP:  69; 6HR MAX TEMP:  79;


$$

INZ006>009-017-018-025>027-260700-
NORTHEAST INDIANA

CITY           SKY/WX    TMP DP  RH WIND       PRES   REMARKS
ANGOLA *+      CLEAR     66  63  88 S6        30.04S
FORT WAYNE     MOCLDY    66  62  87 S9        30.06S
6HR MIN TEMP:  66; 6HR MAX TEMP:  77;


$$

INZ028-029-035-036-043>045-051>053-260700-
WEST CENTRAL INDIANA

CITY           SKY/WX    TMP DP  RH WIND       PRES   REMARKS
GREENCASTLE +  CLEAR     61  57  88 SE5       30.06F FOG
LAFAYETTE      PTCLDY    67  64  90 S8        30.01F
6HR MIN TEMP:  66; 6HR MAX TEMP:  76;

TERRE HAUTE    PTCLDY    65  64  97 SE7       30.03F
6HR MIN TEMP:  65; 6HR MAX TEMP:  75;


$$

INZ030>032-037>040-046>048-054>057-064-065-260700-
CENTRAL INDIANA

CITY           SKY/WX    TMP DP  RH WIND       PRES   REMARKS
GREENWOOD *+   MOCLDY    66  63  88 S6        30.08F
INDIANAPOLIS   PTCLDY    65  62  90 S5        30.05F
6HR MIN TEMP:  65; 6HR MAX TEMP:  74;

-EAGLE CREEK   PTCLDY    66  63  90 CALM      30.06S
6HR MIN TEMP:  66; 6HR MAX TEMP:  74;

KOKOMO *+      CLEAR     66  63  88 S12       30.04F
6HR MIN TEMP:  66; 6HR MAX TEMP:  77;

MT COMFORT *+  MOCLDY    66 N/A N/A S7        30.07F
SHELBYVILLE    CLOUDY    69  64  84 S8        30.07F
6HR MIN TEMP:  69; 6HR MAX TEMP:  76;


$$

INZ033-034-041-042-049-050-058-059-260700-
EAST CENTRAL INDIANA

CITY           SKY/WX    TMP DP  RH WIND       PRES   REMARKS
MUNCIE         MOCLDY    67  63  87 S6        30.07F
6HR MIN TEMP:  67; 6HR MAX TEMP:  76;


$$

INZ060-061-067>069-081>083-085>088-260700-
SOUTHWEST INDIANA

CITY           SKY/WX    TMP DP  RH WIND       PRES   REMARKS
EVANSVILLE     PTCLDY    68  66  93 SE5       30.04F
6HR MIN TEMP:  68; 6HR MAX TEMP:  73;

HUNTINGBURG *+ CLOUDY    66  63  88 S6        30.07F
6HR MIN TEMP:  66; 6HR MAX TEMP:  70;


$$

INZ062-063-066-070>080-084-089>092-260700-
SOUTH CENTRAL AND SOUTHEAST INDIANA

CITY           SKY/WX    TMP DP  RH WIND       PRES   REMARKS
BLOOMINGTON    MOCLDY    65  64  97 S6        30.06F
6HR MIN TEMP:  65; 6HR MAX TEMP:  73;

MADISON *+     MOCLDY    66  63  88 S5        30.12F
SEYMOUR +      MOCLDY    68  64  88 S6        30.09S

$$




USA.gov is the U.S. government's official web portal to all federal, state and local government web resources and services.